CZ-6A DEB, 61817

Orbit data source: Space-Track

CZ-6A DEB, 61817 is space debris in LEO originally from a launch on Tue, 06 Aug 2024 UTC launched from the Taiyaun Space Center, China (TSC). Debris objects in space refer to the collection of defunct objects orbiting the Earth. Examples of debris include non-operational satellites, rocket bodies, and fragments generated from explosions, collisions, or faulty payload assembly.

Loading next visibility...
Identifier
61817, 2024-140ACH
Orbit
LEO
Country
Flag of CNCN / PRC
Related business
Manufacturer
SAST
Mission
Spacecraft
Bus & Motor
Unknown
Mass
Unknown
Launch date (UTC)
2024-08-06 (2 years ago)
Launch vehicle
Unknown
Launch site
Taiyaun Space Center, China (TSC)
Object type
Payload
Rocket body
Debris
Shape & HBR
Unknown shape, 0.1 m
Radar Cross Section
Medium (>0.1 m² and <1 m²)

Expand to show TLE details & history
Last TLE update: 2 days ago

TLE from 2 days ago
0 CZ-6A DEB
1 61817U 24140ACH 26170.18718912  .00001112  00000-0  33277-3 0  9997
2 61817  88.7258 249.0707 0047975 341.8045  18.1438 14.41568372 93940
Epoch: 2026-06-19T04:29Z
TLE epoch observation values (Epoch: 2026-06-19T04:29:33.139Z)
Latitude
-0.00005°
Longitude
-85.73715°
Altitude
723.901 km
Speed
7.51 km/s
True Right ascension
16h 36m 16s
True Declination
0° 00' 00"
Sunlit
Object was in full shadow at epoch
Visualization orbit readout
Latitude
Unknown
Longitude
Unknown
Altitude
Unknown
Speed
Unknown
Apparent Right ascension
Unknown
Apparent Declination
Unknown
Sunlit
N/A
Visualization observer readout
Local Sidereal Time
10:19:36
Azimuth
Unknown
Elevation
Unknown
Doppler factor
Unknown
Orbital elements
Apogee altitude
784.442 km
Perigee altitude
716.045 km
Semi-major axis
7,128.38 km
Eccentricity
0.0048
Inclination
88.7258°
RAAN
249.0707°
Arg. of periapsis
341.8045°
True anomaly
18.31598°
Mean anomaly
18.1438°
Eccentric anomaly
18.22979°
Mean motion
3.60626 °/min
Orbital period
99.83 mins
BSTAR
0.00033277
Loading maneuver chart data...
Computing Atmospheric mass density...
Loading historical data...
Loading historical data...
Loading historical data...
Loading historical data...
Loading historical data...
Loading historical data...
Loading historical data...

Documentation

Showing up to 5 results
|